STARLINK-5498, 55633

Orbit data source: Space-Track

STARLINK-5498, 55633 is a payload satellite owned by SpaceX/Seattle (US) in LEO that was launched on Fri, 17 Feb 2023 UTC via an FALCON 9 launch vehicle from the Air Force Western Test Range (AFWTR). Payload-class satellites include a variety of spacecraft equipped with specific instruments for various scientific and technological missions. These include communications satellites like Starlink; space stations such as the ISS; scientific satellites like the Hubble; Earth observation satellites from companies like Planet Labs, Umbra, and HawkEye 360; GPS; miniature CubeSats for education and research; and military/defense satellites.

Loading next visibility...
Identifier
55633, 2023-021F
Orbit
LEO
Country
Flag of USUS
Related business
Manufacturer
SpaceX/Seattle
Mission
Operational Commercial Communications
Bus & Motor
STARLINK, Unknown motor
Mass
305 kg wet, ~290 kg dry
Launch date (UTC)
2023-02-17 (3 years ago)
Launch vehicle
FALCON 9
Launch site
Air Force Western Test Range (AFWTR)
Object type
Payload
Rocket body
Debris
Shape & HBR
Box + 1 Pan, 10.1 m
Radar Cross Section
13.562 m², Large (>1 m²)

Expand to show TLE details & history
Last TLE update: 2 days ago

TLE from 2 days ago
0 STARLINK-5498
1 55633U 23021F   26171.40017794  .00000032  00000-0  10439-4 0  9995
2 55633  69.9995 305.4671 0003364 268.8186  91.2588 14.98332777183682
Epoch: 2026-06-20T09:36Z
TLE epoch observation values (Epoch: 2026-06-20T09:36:15.374Z)
Latitude
-0.00002°
Longitude
-107.21231°
Altitude
574.523 km
Speed
7.574 km/s
True Right ascension
20h 21m 52s
True Declination
0° 00' 00"
Sunlit
Object was in full shadow at epoch
Visualization orbit readout
Latitude
Unknown
Longitude
Unknown
Altitude
Unknown
Speed
Unknown
Apparent Right ascension
Unknown
Apparent Declination
Unknown
Sunlit
N/A
Visualization observer readout
Local Sidereal Time
21:40:20
Azimuth
Unknown
Elevation
Unknown
Doppler factor
Unknown
Orbital elements
Apogee altitude
572.333 km
Perigee altitude
567.658 km
Semi-major axis
6,948.133 km
Eccentricity
0.00034
Inclination
69.9995°
RAAN
305.4671°
Arg. of periapsis
268.8186°
True anomaly
91.29734°
Mean anomaly
91.2588°
Eccentric anomaly
91.27807°
Mean motion
3.74749 °/min
Orbital period
96.06 mins
BSTAR
0.000010439
Loading maneuver chart data...
Computing Atmospheric mass density...

Documentation

Showing up to 5 results
|